Location: Huisseau
(47.5933°N, 1.4533°E)
Time: 18:18:18
(UTC+00:00)

CENTAUR R/B - Pass Details

Date: 20 November 2025
Orbit: 633 x 1547 km, 63.4° (Epoch: 06 December)

Event Time Altitude Azimuth Distance (km) Brightness Sun altitude
Exits shadow 03:17:17 54° 14° (NNE) 1,656 3.6 -38.2°
Maximum altitude 03:18:23 57° 41° (NE) 1,630 3.6 -38.1°
Drops below altitude 10° 03:27:31 10° 119° (ESE) 3,694 6.0 -36.6°
Sets 03:30:44 0° 123° (ESE) 4,701 6.6 -36.0°
